Weather History for PAKT - February, 2014

Change the Weather History Date:

Monday, February 24, 2014

  Actual Average Record
Temperature  
Mean Temperature 29 °F -  
Max Temperature 39 °F 42 °F 55 °F (1964)
Min Temperature 19 °F 31 °F 8 °F (1957)
Degree Days  
Heating Degree Days 36    
Moisture  
Dew Point 10 °F    
Average Humidity 47    
Maximum Humidity 65    
Minimum Humidity 25    
Precipitation  
Precipitation 0.00 in - - ()
Sea Level Pressure  
Sea Level Pressure 30.14 in    
Wind  
Wind Speed 3 mph (South)    
Max Wind Speed 7 mph    
Max Gust Speed -    
Visibility 10 miles    
Events      
Averages and records for this station are not official NWS values.
T = Trace of Precipitation, MM = Missing Value Source: NWS Daily Summary

Daily Weather History Graph

Daily Weather History Graph

Search for Another Location

Airport or City:

Trip Planner

Search our weather history database for the weather conditions in past years. The results will help you decide how hot, cold, wet, or windy it might be!

Date:

Astronomy

Feb. 24, 2014 Rise Set
Actual Time 6:48 AM AKST 5:12 PM AKST
Civil Twilight 6:11 AM AKST 5:49 PM AKST
Nautical Twilight 5:29 AM AKST 6:31 PM AKST
Astronomical Twilight 4:47 AM AKST 7:14 PM AKST
Moon 3:27 AM AKST (2/24) 11:47 AM AKST (2/24)
Length of Visible Light 11h 37m
Length of Day
10h 23m
Waning Crescent, 26% of the Moon is Illuminated
Feb 24
Waning Crescent
Feb 28
New
Mar 8
First Quarter
Mar 16
Full
Mar 23
Last Quarter

Hourly Weather History & Observations

Time (AKST) Temp. Windchill Dew Point Humidity Pressure Visibility Wind Dir Wind Speed Gust Speed Precip Events Conditions
12:53 AM 26.1 °F 18.4 °F 3.9 °F 39% 30.11 in 10.0 mi SE 6.9 mph - N/A   Clear
1:53 AM 27.0 °F 23.0 °F 3.9 °F 37% 30.11 in 10.0 mi SSW 3.5 mph - N/A   Clear
3:53 AM 19.9 °F - 7.0 °F 57% 30.12 in 10.0 mi Calm Calm - N/A   Clear
4:53 AM 21.0 °F - 8.1 °F 57% 30.13 in 10.0 mi Calm Calm - N/A   Clear
5:53 AM 19.9 °F - 8.1 °F 60% 30.12 in 10.0 mi Calm Calm - N/A   Mostly Cloudy
6:04 AM 21.2 °F - 8.6 °F 58% 30.11 in 10.0 mi Calm Calm - N/A   Mostly Cloudy
6:53 AM 23.0 °F - 9.0 °F 55% 30.13 in 10.0 mi Calm Calm - N/A   Overcast
7:53 AM 27.0 °F - 12.9 °F 56% 30.14 in 10.0 mi Calm Calm - N/A   Overcast
8:53 AM 30.9 °F - 14.0 °F 50% 30.15 in 10.0 mi Calm Calm - N/A   Overcast
9:53 AM 35.1 °F - 12.0 °F 39% 30.16 in 10.0 mi Calm Calm - N/A   Scattered Clouds
10:53 AM 37.0 °F 33.3 °F 8.1 °F 30% 30.16 in 10.0 mi North 4.6 mph - N/A   Clear
11:53 AM 37.0 °F 31.6 °F 7.0 °F 29% 30.16 in 10.0 mi SE 6.9 mph - N/A   Clear
12:53 PM 39.0 °F 35.7 °F 6.1 °F 26% 30.15 in 10.0 mi SSE 4.6 mph - N/A   Clear
1:53 PM 39.9 °F 37.8 °F 6.1 °F 25% 30.14 in 10.0 mi South 3.5 mph - N/A   Clear
2:53 PM 39.0 °F 35.7 °F 7.0 °F 27% 30.14 in 10.0 mi SE 4.6 mph - N/A   Clear
3:53 PM 37.9 °F - 9.0 °F 30% 30.13 in 10.0 mi Calm Calm - N/A   Clear
4:53 PM 34.0 °F - 10.9 °F 38% 30.13 in 10.0 mi Calm Calm - N/A   Clear
5:53 PM 28.9 °F - 12.9 °F 51% 30.13 in 10.0 mi Calm Calm - N/A   Clear
6:53 PM 27.0 °F - 15.1 °F 61% 30.13 in 10.0 mi Calm Calm - N/A   Clear
7:53 PM 27.0 °F - 12.9 °F 56% 30.14 in 10.0 mi Calm Calm - N/A   Clear
8:53 PM 25.0 °F 19.3 °F 12.9 °F 60% 30.15 in 10.0 mi SW 4.6 mph - N/A   Clear
9:53 PM 24.1 °F 18.2 °F 14.0 °F 65% 30.16 in 10.0 mi SSW 4.6 mph - N/A   Clear
10:53 PM 24.1 °F - 12.9 °F 62% 30.16 in 10.0 mi Calm Calm - N/A   Clear
11:53 PM 24.1 °F 19.7 °F 14.0 °F 65% 30.16 in 10.0 mi SSW 3.5 mph - N/A   Clear